Year,Month,Day,Hour,Minute,Value (Times are PST for temperature in C)
2018,06,19,00,00,17.90
2018,06,19,00,01,17.90
2018,06,19,00,02,17.90
2018,06,19,00,03,17.90
2018,06,19,00,04,17.90
2018,06,19,00,05,17.90
2018,06,19,00,06,18.00
2018,06,19,00,07,18.00
2018,06,19,00,08,18.00
2018,06,19,00,09,18.10
2018,06,19,00,10,18.10
2018,06,19,00,11,18.10
2018,06,19,00,12,18.00
2018,06,19,00,13,18.00
2018,06,19,00,14,17.90
2018,06,19,00,15,17.90
2018,06,19,00,16,17.80
2018,06,19,00,17,17.80
2018,06,19,00,18,17.70
2018,06,19,00,19,17.70
2018,06,19,00,20,17.70
2018,06,19,00,21,17.60
2018,06,19,00,22,17.60
2018,06,19,00,23,17.60
2018,06,19,00,24,17.60
2018,06,19,00,25,17.60
2018,06,19,00,26,17.60
2018,06,19,00,27,17.50
2018,06,19,00,28,17.50
2018,06,19,00,29,17.40
2018,06,19,00,30,17.40
2018,06,19,00,31,17.40
2018,06,19,00,32,17.40
2018,06,19,00,33,17.30
2018,06,19,00,34,17.30
2018,06,19,00,35,17.30
2018,06,19,00,36,17.30
2018,06,19,00,37,17.20
2018,06,19,00,38,17.20
2018,06,19,00,39,17.20
2018,06,19,00,40,17.20
2018,06,19,00,41,17.20
2018,06,19,00,42,17.10
2018,06,19,00,43,17.10
2018,06,19,00,44,17.10
2018,06,19,00,45,17.10
2018,06,19,00,46,17.20
2018,06,19,00,47,17.20
2018,06,19,00,48,17.20
2018,06,19,00,49,17.10
2018,06,19,00,50,17.10
2018,06,19,00,51,17.10
2018,06,19,00,52,17.10
2018,06,19,00,53,17.10
2018,06,19,00,54,17.00
2018,06,19,00,55,17.00
2018,06,19,00,56,17.00
2018,06,19,00,57,16.90
2018,06,19,00,58,16.90
2018,06,19,00,59,16.80
2018,06,19,01,00,16.80
2018,06,19,01,01,16.80
2018,06,19,01,02,16.80
2018,06,19,01,03,16.80
2018,06,19,01,04,16.70
2018,06,19,01,05,16.70
2018,06,19,01,06,16.70
2018,06,19,01,07,16.70
2018,06,19,01,08,16.70
2018,06,19,01,09,16.70
2018,06,19,01,10,16.70
2018,06,19,01,11,16.60
2018,06,19,01,12,16.60
2018,06,19,01,13,16.60
2018,06,19,01,14,16.60
2018,06,19,01,15,16.60
2018,06,19,01,16,16.60
2018,06,19,01,17,16.60
2018,06,19,01,18,16.50
2018,06,19,01,19,16.50
2018,06,19,01,20,16.50
2018,06,19,01,21,16.50
2018,06,19,01,22,16.50
2018,06,19,01,23,16.50
2018,06,19,01,24,16.50
2018,06,19,01,25,16.50
2018,06,19,01,26,16.50
2018,06,19,01,27,16.40
2018,06,19,01,28,16.40
2018,06,19,01,29,16.40
2018,06,19,01,30,16.40
2018,06,19,01,31,16.30
2018,06,19,01,32,16.30
2018,06,19,01,33,16.30
2018,06,19,01,34,16.30
2018,06,19,01,35,16.30
2018,06,19,01,36,16.30
2018,06,19,01,37,16.20
2018,06,19,01,38,16.20
2018,06,19,01,39,16.20
2018,06,19,01,40,16.20
2018,06,19,01,41,16.20
2018,06,19,01,42,16.20
2018,06,19,01,43,16.20
2018,06,19,01,44,16.10
2018,06,19,01,45,16.10
2018,06,19,01,46,16.10
2018,06,19,01,47,16.10
2018,06,19,01,48,16.10
2018,06,19,01,49,16.10
2018,06,19,01,50,16.10
2018,06,19,01,51,16.10
2018,06,19,01,52,16.10
2018,06,19,01,53,16.00
2018,06,19,01,54,16.10
2018,06,19,01,55,16.10
2018,06,19,01,56,16.10
2018,06,19,01,57,16.00
2018,06,19,01,58,16.00
2018,06,19,01,59,15.90
2018,06,19,02,00,15.90
2018,06,19,02,01,15.90
2018,06,19,02,02,15.90
2018,06,19,02,03,15.80
2018,06,19,02,04,15.80
2018,06,19,02,05,15.80
2018,06,19,02,06,15.80
2018,06,19,02,07,15.80
2018,06,19,02,08,15.80
2018,06,19,02,09,15.80
2018,06,19,02,10,15.80
2018,06,19,02,11,15.70
2018,06,19,02,12,15.70
2018,06,19,02,13,15.70
2018,06,19,02,14,15.70
2018,06,19,02,15,15.70
2018,06,19,02,16,15.70
2018,06,19,02,17,15.80
2018,06,19,02,18,15.80
2018,06,19,02,19,15.80
2018,06,19,02,20,15.80
2018,06,19,02,21,15.80
2018,06,19,02,22,15.70
2018,06,19,02,23,15.70
2018,06,19,02,24,15.70
2018,06,19,02,25,15.70
2018,06,19,02,26,15.70
2018,06,19,02,27,15.70
2018,06,19,02,28,15.60
2018,06,19,02,29,15.60
2018,06,19,02,30,15.60
2018,06,19,02,31,15.50
2018,06,19,02,32,15.40
2018,06,19,02,33,15.40
2018,06,19,02,34,15.40
2018,06,19,02,35,15.30
2018,06,19,02,36,15.30
2018,06,19,02,37,15.30
2018,06,19,02,38,15.20
2018,06,19,02,39,15.20
2018,06,19,02,40,15.10
2018,06,19,02,41,15.10
2018,06,19,02,42,15.10
2018,06,19,02,43,15.10
2018,06,19,02,44,15.10
2018,06,19,02,45,15.10
2018,06,19,02,46,15.10
2018,06,19,02,47,15.10
2018,06,19,02,48,15.10
2018,06,19,02,49,15.10
2018,06,19,02,50,15.10
2018,06,19,02,51,15.10
2018,06,19,02,52,15.10
2018,06,19,02,53,15.10
2018,06,19,02,54,15.10
2018,06,19,02,55,15.10
2018,06,19,02,56,15.00
2018,06,19,02,57,15.00
2018,06,19,02,58,15.00
2018,06,19,02,59,15.00
2018,06,19,03,00,15.00
2018,06,19,03,01,15.00
2018,06,19,03,02,15.10
2018,06,19,03,06,15.10
2018,06,19,03,07,15.10
2018,06,19,03,08,15.10
2018,06,19,03,09,15.00
2018,06,19,03,10,15.00
2018,06,19,03,11,15.00
2018,06,19,03,12,15.00
2018,06,19,03,13,14.90
2018,06,19,03,14,14.90
2018,06,19,03,15,14.90
2018,06,19,03,16,14.90
2018,06,19,03,17,14.90
2018,06,19,03,18,14.80
2018,06,19,03,19,14.80
2018,06,19,03,20,14.80
2018,06,19,03,21,14.80
2018,06,19,03,22,14.80
2018,06,19,03,23,14.80
2018,06,19,03,24,14.80
2018,06,19,03,25,14.80
2018,06,19,03,26,14.70
2018,06,19,03,27,14.70
2018,06,19,03,28,14.70
2018,06,19,03,29,14.80
2018,06,19,03,30,14.80
2018,06,19,03,31,14.80
2018,06,19,03,32,14.80
2018,06,19,03,33,14.80
2018,06,19,03,34,14.80
2018,06,19,03,35,14.80
2018,06,19,03,36,14.80
2018,06,19,03,37,14.80
2018,06,19,03,38,14.80
2018,06,19,03,39,14.80
2018,06,19,03,40,14.80
2018,06,19,03,41,14.80
2018,06,19,03,42,14.80
2018,06,19,03,43,14.80
2018,06,19,03,44,14.80
2018,06,19,03,45,14.80
2018,06,19,03,46,14.80
2018,06,19,03,47,14.80
2018,06,19,03,48,14.80
2018,06,19,03,49,14.70
2018,06,19,03,50,14.70
2018,06,19,03,51,14.70
2018,06,19,03,52,14.70
2018,06,19,03,53,14.70
2018,06,19,03,54,14.70
2018,06,19,03,55,14.70
2018,06,19,03,56,14.70
2018,06,19,03,57,14.60
2018,06,19,03,58,14.70
2018,06,19,03,59,14.60
2018,06,19,04,00,14.60
2018,06,19,04,01,14.60
2018,06,19,04,02,14.70
2018,06,19,04,03,14.70
2018,06,19,04,04,14.70
2018,06,19,04,05,14.70
2018,06,19,04,06,14.70
2018,06,19,04,07,14.70
2018,06,19,04,08,14.70
2018,06,19,04,09,14.70
2018,06,19,04,10,14.80
2018,06,19,04,11,14.80
2018,06,19,04,12,14.80
2018,06,19,04,13,14.80
2018,06,19,04,14,14.80
2018,06,19,04,15,14.80
2018,06,19,04,16,14.90
2018,06,19,04,17,14.90
2018,06,19,04,18,14.90
2018,06,19,04,19,15.00
2018,06,19,04,20,15.00
2018,06,19,04,21,15.00
2018,06,19,04,22,15.00
2018,06,19,04,23,15.00
2018,06,19,04,24,15.10
2018,06,19,04,25,15.10
2018,06,19,04,26,15.10
2018,06,19,04,27,15.10
2018,06,19,04,28,15.10
2018,06,19,04,29,15.10
2018,06,19,04,30,15.10
2018,06,19,04,31,15.10
2018,06,19,04,32,15.10
2018,06,19,04,33,15.10
2018,06,19,04,34,15.20
2018,06,19,04,35,15.20
2018,06,19,04,36,15.20
2018,06,19,04,37,15.10
2018,06,19,04,38,15.20
2018,06,19,04,39,15.20
2018,06,19,04,40,15.20
2018,06,19,04,41,15.20
2018,06,19,04,42,15.20
2018,06,19,04,43,15.20
2018,06,19,04,44,15.20
2018,06,19,04,45,15.20
2018,06,19,04,46,15.20
2018,06,19,04,47,15.20
2018,06,19,04,48,15.10
2018,06,19,04,49,15.20
2018,06,19,04,50,15.10
2018,06,19,04,51,15.20
2018,06,19,04,52,15.20
2018,06,19,04,53,15.20
2018,06,19,04,54,15.20
2018,06,19,04,55,15.20
2018,06,19,04,56,15.20
2018,06,19,04,57,15.20
2018,06,19,04,58,15.20
2018,06,19,04,59,15.20
2018,06,19,05,00,15.20
2018,06,19,05,01,15.20
2018,06,19,05,02,15.20
2018,06,19,05,03,15.30
2018,06,19,05,04,15.30
2018,06,19,05,05,15.30
2018,06,19,05,06,15.30
2018,06,19,05,07,15.30
2018,06,19,05,08,15.30
2018,06,19,05,09,15.30
2018,06,19,05,10,15.30
2018,06,19,05,11,15.40
2018,06,19,05,12,15.40
2018,06,19,05,13,15.40
2018,06,19,05,14,15.40
2018,06,19,05,15,15.40
2018,06,19,05,16,15.40
2018,06,19,05,17,15.40
2018,06,19,05,18,15.40
2018,06,19,05,19,15.40
2018,06,19,05,20,15.40
2018,06,19,05,21,15.50
2018,06,19,05,22,15.50
2018,06,19,05,23,15.50
2018,06,19,05,24,15.50
2018,06,19,05,25,15.60
2018,06,19,05,26,15.60
2018,06,19,05,27,15.60
2018,06,19,05,28,15.60
2018,06,19,05,29,15.70
2018,06,19,05,30,15.70
2018,06,19,05,31,15.70
2018,06,19,05,32,15.80
2018,06,19,05,33,15.80
2018,06,19,05,34,15.80
2018,06,19,05,35,15.80
2018,06,19,05,36,15.80
2018,06,19,05,37,15.80
2018,06,19,05,38,15.90
2018,06,19,05,39,15.90
2018,06,19,05,40,15.90
2018,06,19,05,41,15.90
2018,06,19,05,42,15.90
2018,06,19,05,43,16.00
2018,06,19,05,44,16.00
2018,06,19,05,45,16.10
2018,06,19,05,46,16.10
2018,06,19,05,47,16.10
2018,06,19,05,48,16.20
2018,06,19,05,49,16.20
2018,06,19,05,50,16.20
2018,06,19,05,51,16.20
2018,06,19,05,52,16.20
2018,06,19,05,53,16.30
2018,06,19,05,54,16.30
2018,06,19,05,55,16.30
2018,06,19,05,56,16.30
2018,06,19,05,57,16.40
2018,06,19,05,58,16.40
2018,06,19,05,59,16.40
2018,06,19,06,00,16.40
2018,06,19,06,01,16.40
2018,06,19,06,02,16.40
2018,06,19,06,03,16.40
2018,06,19,06,04,16.50
2018,06,19,06,05,16.50
2018,06,19,06,06,16.50
2018,06,19,06,07,16.50
2018,06,19,06,08,16.50
2018,06,19,06,09,16.50
2018,06,19,06,10,16.50
2018,06,19,06,11,16.60
2018,06,19,06,12,16.60
2018,06,19,06,13,16.60
2018,06,19,06,14,16.60
2018,06,19,06,15,16.60
2018,06,19,06,16,16.60
2018,06,19,06,17,16.60
2018,06,19,06,18,16.60
2018,06,19,06,19,16.60
2018,06,19,06,20,16.70
2018,06,19,06,21,16.70
2018,06,19,06,22,16.70
2018,06,19,06,23,16.70
2018,06,19,06,24,16.70
2018,06,19,06,25,16.70
2018,06,19,06,26,16.70
2018,06,19,06,27,16.70
2018,06,19,06,28,16.80
2018,06,19,06,29,16.80
2018,06,19,06,30,16.80
2018,06,19,06,31,16.80
2018,06,19,06,32,16.80
2018,06,19,06,33,16.80
2018,06,19,06,34,16.90
2018,06,19,06,35,16.90
2018,06,19,06,36,16.90
2018,06,19,06,37,16.90
2018,06,19,06,38,16.90
2018,06,19,06,39,16.90
2018,06,19,06,40,17.00
2018,06,19,06,41,17.00
2018,06,19,06,42,17.00
2018,06,19,06,43,17.00
2018,06,19,06,44,17.00
2018,06,19,06,45,17.00
2018,06,19,06,46,17.00
2018,06,19,06,47,17.00
2018,06,19,06,48,17.00
2018,06,19,06,49,17.00
2018,06,19,06,50,17.00
2018,06,19,06,51,17.00
2018,06,19,06,52,17.00
2018,06,19,06,53,17.00
2018,06,19,06,54,17.10
2018,06,19,06,55,17.10
2018,06,19,06,56,17.10
2018,06,19,06,57,17.10
2018,06,19,06,58,17.10
2018,06,19,06,59,17.10
2018,06,19,07,00,17.10
2018,06,19,07,01,17.10
2018,06,19,07,02,17.20
2018,06,19,07,03,17.20
2018,06,19,07,04,17.20
2018,06,19,07,05,17.20
2018,06,19,07,06,17.30
2018,06,19,07,07,17.30
2018,06,19,07,08,17.30
2018,06,19,07,09,17.30
2018,06,19,07,10,17.30
2018,06,19,07,11,17.30
2018,06,19,07,12,17.40
2018,06,19,07,13,17.40
2018,06,19,07,14,17.40
2018,06,19,07,15,17.40
2018,06,19,07,16,17.40
2018,06,19,07,17,17.40
2018,06,19,07,18,17.40
2018,06,19,07,19,17.40
2018,06,19,07,20,17.40
2018,06,19,07,21,17.40
2018,06,19,07,22,17.40
2018,06,19,07,23,17.40
2018,06,19,07,24,17.40
2018,06,19,07,25,17.40
2018,06,19,07,26,17.40
2018,06,19,07,27,17.40
2018,06,19,07,28,17.40
2018,06,19,07,29,17.50
2018,06,19,07,30,17.60
2018,06,19,07,31,17.60
2018,06,19,07,32,17.60
2018,06,19,07,33,17.70
2018,06,19,07,34,17.70
2018,06,19,07,35,17.80
2018,06,19,07,36,17.90
2018,06,19,07,37,17.90
2018,06,19,07,38,18.00
2018,06,19,07,39,18.10
2018,06,19,07,40,18.10
2018,06,19,07,41,18.20
2018,06,19,07,42,18.30
2018,06,19,07,43,18.30
2018,06,19,07,44,18.30
2018,06,19,07,45,18.30
2018,06,19,07,46,18.30
2018,06,19,07,47,18.30
2018,06,19,07,48,18.40
2018,06,19,07,49,18.40
2018,06,19,07,50,18.40
2018,06,19,07,51,18.40
2018,06,19,07,52,18.40
2018,06,19,07,53,18.50
2018,06,19,07,54,18.40
2018,06,19,07,55,18.40
2018,06,19,07,56,18.40
2018,06,19,07,57,18.40
2018,06,19,07,58,18.40
2018,06,19,07,59,18.40
2018,06,19,08,00,18.40
2018,06,19,08,01,18.40
2018,06,19,08,02,18.40
2018,06,19,08,03,18.40
2018,06,19,08,04,18.40
2018,06,19,08,05,18.40
2018,06,19,08,06,18.40
2018,06,19,08,07,18.40
2018,06,19,08,08,18.40
2018,06,19,08,09,18.40
2018,06,19,08,10,18.40
2018,06,19,08,11,18.40
2018,06,19,08,12,18.40
2018,06,19,08,13,18.50
2018,06,19,08,14,18.50
2018,06,19,08,15,18.60
2018,06,19,08,16,18.60
2018,06,19,08,17,18.70
2018,06,19,08,18,18.80
2018,06,19,08,19,18.80
2018,06,19,08,20,18.90
2018,06,19,08,21,18.90
2018,06,19,08,22,18.90
2018,06,19,08,23,18.90
2018,06,19,08,24,19.00
2018,06,19,08,25,19.00
2018,06,19,08,26,19.10
2018,06,19,08,27,19.10
2018,06,19,08,28,19.20
2018,06,19,08,29,19.20
2018,06,19,08,30,19.20
2018,06,19,08,31,19.20
2018,06,19,08,32,19.30
2018,06,19,08,33,19.30
2018,06,19,08,34,19.30
2018,06,19,08,35,19.30
2018,06,19,08,36,19.40
2018,06,19,08,37,19.40
2018,06,19,08,38,19.30
2018,06,19,08,39,19.30
2018,06,19,08,40,19.30
2018,06,19,08,41,19.30
2018,06,19,08,42,19.30
2018,06,19,08,43,19.30
2018,06,19,08,44,19.30
2018,06,19,08,45,19.30
2018,06,19,08,46,19.30
2018,06,19,08,47,19.30
2018,06,19,08,48,19.30
2018,06,19,08,49,19.30
2018,06,19,08,50,19.30
2018,06,19,08,51,19.30
2018,06,19,08,52,19.30
2018,06,19,08,53,19.30
2018,06,19,08,54,19.30
2018,06,19,08,55,19.30
2018,06,19,08,56,19.30
2018,06,19,08,57,19.30
2018,06,19,08,58,19.30
2018,06,19,08,59,19.30
2018,06,19,09,00,19.30
2018,06,19,09,01,19.20
2018,06,19,09,02,19.20
2018,06,19,09,03,19.20
2018,06,19,09,04,19.20
2018,06,19,09,05,19.20
2018,06,19,09,06,19.20
2018,06,19,09,07,19.30
2018,06,19,09,08,19.30
2018,06,19,09,09,19.40
2018,06,19,09,10,19.50
2018,06,19,09,11,19.50
2018,06,19,09,12,19.60
2018,06,19,09,13,19.60
2018,06,19,09,14,19.70
2018,06,19,09,15,19.70
2018,06,19,09,16,19.80
2018,06,19,09,17,19.80
2018,06,19,09,18,19.90
2018,06,19,09,19,19.90
2018,06,19,09,20,19.90
2018,06,19,09,21,19.90
2018,06,19,09,22,19.80
2018,06,19,09,23,19.80
2018,06,19,09,24,19.70
2018,06,19,09,25,19.70
2018,06,19,09,26,19.60
2018,06,19,09,27,19.60
2018,06,19,09,28,19.60
2018,06,19,09,29,19.60
2018,06,19,09,30,19.60
2018,06,19,09,31,19.60
2018,06,19,09,32,19.60
2018,06,19,09,33,19.60
2018,06,19,09,34,19.60
2018,06,19,09,35,19.60
2018,06,19,09,36,19.60
2018,06,19,09,37,19.60
2018,06,19,09,38,19.60
2018,06,19,09,39,19.60
2018,06,19,09,40,19.60
2018,06,19,09,41,19.60
2018,06,19,09,42,19.60
2018,06,19,09,43,19.60
2018,06,19,09,44,19.60
2018,06,19,09,45,19.60
2018,06,19,09,46,19.60
2018,06,19,09,47,19.60
2018,06,19,09,48,19.60
2018,06,19,09,49,19.60
2018,06,19,09,50,19.60
2018,06,19,09,51,19.60
2018,06,19,09,52,19.60
2018,06,19,09,53,19.70
2018,06,19,09,54,19.70
2018,06,19,09,55,19.80
2018,06,19,09,56,19.80
2018,06,19,09,57,19.90
2018,06,19,09,58,19.90
2018,06,19,09,59,19.90
2018,06,19,10,00,20.00
2018,06,19,10,01,20.00
2018,06,19,10,02,20.00
2018,06,19,10,03,20.10
2018,06,19,10,04,20.20
2018,06,19,10,05,20.20
2018,06,19,10,06,20.30
2018,06,19,10,07,20.40
2018,06,19,10,08,20.40
2018,06,19,10,09,20.50
2018,06,19,10,10,20.60
2018,06,19,10,11,20.60
2018,06,19,10,12,20.70
2018,06,19,10,13,20.70
2018,06,19,10,14,20.80
2018,06,19,10,15,20.80
2018,06,19,10,16,20.80
2018,06,19,10,17,20.90
2018,06,19,10,18,21.00
2018,06,19,10,19,21.00
2018,06,19,10,20,21.10
2018,06,19,10,21,21.10
2018,06,19,10,22,21.10
2018,06,19,10,23,21.10
2018,06,19,10,24,21.10
2018,06,19,10,25,21.10
2018,06,19,10,26,21.20
2018,06,19,10,27,21.20
2018,06,19,10,28,21.10
2018,06,19,10,29,21.00
2018,06,19,10,30,21.00
2018,06,19,10,31,21.10
2018,06,19,10,32,21.20
2018,06,19,10,33,21.30
2018,06,19,10,34,21.40
2018,06,19,10,35,21.40
2018,06,19,10,36,21.40
2018,06,19,10,37,21.30
2018,06,19,10,38,21.30
2018,06,19,10,39,21.30
2018,06,19,10,40,21.30
2018,06,19,10,41,21.30
2018,06,19,10,42,21.40
2018,06,19,10,43,21.50
2018,06,19,10,44,21.60
2018,06,19,10,45,21.70
2018,06,19,10,46,21.80
2018,06,19,10,47,21.80
2018,06,19,10,48,21.90
2018,06,19,10,49,21.90
2018,06,19,10,50,21.90
2018,06,19,10,51,21.80
2018,06,19,10,52,21.80
2018,06,19,10,53,21.80
2018,06,19,10,54,21.80
2018,06,19,10,55,21.90
2018,06,19,10,56,22.00
2018,06,19,10,57,22.10
2018,06,19,10,58,22.20
2018,06,19,10,59,22.20
2018,06,19,11,00,22.30
2018,06,19,11,01,22.30
2018,06,19,11,02,22.30
2018,06,19,11,03,22.30
2018,06,19,11,04,22.30
2018,06,19,11,05,22.30
2018,06,19,11,06,22.40
2018,06,19,11,07,22.40
2018,06,19,11,08,22.40
2018,06,19,11,09,22.50
2018,06,19,11,10,22.50
2018,06,19,11,11,22.50
2018,06,19,11,12,22.60
2018,06,19,11,13,22.70
2018,06,19,11,14,22.70
2018,06,19,11,15,22.80
2018,06,19,11,16,22.80
2018,06,19,11,17,22.80
2018,06,19,11,18,22.80
2018,06,19,11,19,22.70
2018,06,19,11,20,22.70
2018,06,19,11,21,22.70
2018,06,19,11,22,22.70
2018,06,19,11,23,22.70
2018,06,19,11,24,22.70
2018,06,19,11,25,22.70
2018,06,19,11,26,22.70
2018,06,19,11,27,22.70
2018,06,19,11,28,22.70
2018,06,19,11,29,22.70
2018,06,19,11,30,22.80
2018,06,19,11,31,22.80
2018,06,19,11,32,22.80
2018,06,19,11,33,22.80
2018,06,19,11,34,22.80
2018,06,19,11,35,22.80
2018,06,19,11,36,22.80
2018,06,19,11,37,22.80
2018,06,19,11,38,22.80
2018,06,19,11,39,22.80
2018,06,19,11,40,22.90
2018,06,19,11,41,22.90
2018,06,19,11,42,22.90
2018,06,19,11,43,22.80
2018,06,19,11,44,22.80
2018,06,19,11,45,22.90
2018,06,19,11,46,22.90
2018,06,19,11,47,22.90
2018,06,19,11,48,23.00
2018,06,19,11,49,23.00
2018,06,19,11,50,23.10
2018,06,19,11,51,23.20
2018,06,19,11,52,23.30
2018,06,19,11,53,23.30
2018,06,19,11,54,23.40
2018,06,19,11,55,23.40
2018,06,19,11,56,23.40
2018,06,19,11,57,23.50
2018,06,19,11,58,23.50
2018,06,19,11,59,23.60
2018,06,19,12,00,23.60
2018,06,19,12,01,23.60
2018,06,19,12,02,23.60
2018,06,19,12,03,23.60
2018,06,19,12,04,23.60
2018,06,19,12,05,23.60
2018,06,19,12,06,23.70
2018,06,19,12,07,23.70
2018,06,19,12,08,23.70
2018,06,19,12,09,23.70
2018,06,19,12,10,23.80
2018,06,19,12,11,23.80
2018,06,19,12,12,23.80
2018,06,19,12,13,23.80
2018,06,19,12,14,23.80
2018,06,19,12,15,23.80
2018,06,19,12,16,23.80
2018,06,19,12,17,23.80
2018,06,19,12,18,23.90
2018,06,19,12,19,23.90
2018,06,19,12,20,23.90
2018,06,19,12,21,23.90
2018,06,19,12,22,23.90
2018,06,19,12,23,23.90
2018,06,19,12,24,23.90
2018,06,19,12,25,24.00
2018,06,19,12,26,24.10
2018,06,19,12,27,24.10
2018,06,19,12,28,24.20
2018,06,19,12,29,24.20
2018,06,19,12,30,24.30
2018,06,19,12,31,24.30
2018,06,19,12,32,24.40
2018,06,19,12,33,24.50
2018,06,19,12,34,24.60
2018,06,19,12,35,24.70
2018,06,19,12,36,24.70
2018,06,19,12,37,24.60
2018,06,19,12,38,24.60
2018,06,19,12,39,24.70
2018,06,19,12,40,24.70
2018,06,19,12,41,24.80
2018,06,19,12,42,24.80
2018,06,19,12,43,24.90
2018,06,19,12,44,24.80
2018,06,19,12,45,24.80
2018,06,19,12,46,24.80
2018,06,19,12,47,24.80
2018,06,19,12,48,24.70
2018,06,19,12,49,24.70
2018,06,19,12,50,24.70
2018,06,19,12,51,24.70
2018,06,19,12,52,24.70
2018,06,19,12,53,24.60
2018,06,19,12,54,24.60
2018,06,19,12,55,24.50
2018,06,19,12,56,24.50
2018,06,19,12,57,24.60
2018,06,19,12,58,24.60
2018,06,19,12,59,24.60
2018,06,19,13,00,24.70
2018,06,19,13,01,24.80
2018,06,19,13,02,24.90
2018,06,19,13,03,25.00
2018,06,19,13,04,25.10
2018,06,19,13,05,25.20
2018,06,19,13,06,25.30
2018,06,19,13,07,25.40
2018,06,19,13,08,25.50
2018,06,19,13,09,25.50
2018,06,19,13,10,25.60
2018,06,19,13,11,25.70
2018,06,19,13,12,25.70
2018,06,19,13,13,25.70
2018,06,19,13,14,25.70
2018,06,19,13,15,25.70
2018,06,19,13,16,25.60
2018,06,19,13,17,25.50
2018,06,19,13,18,25.50
2018,06,19,13,19,25.40
2018,06,19,13,20,25.40
2018,06,19,13,21,25.50
2018,06,19,13,22,25.60
2018,06,19,13,23,25.70
2018,06,19,13,24,25.80
2018,06,19,13,25,25.90
2018,06,19,13,26,25.90
2018,06,19,13,27,25.90
2018,06,19,13,28,25.90
2018,06,19,13,29,25.90
2018,06,19,13,30,25.90
2018,06,19,13,31,25.90
2018,06,19,13,32,26.00
2018,06,19,13,33,26.00
2018,06,19,13,34,26.10
2018,06,19,13,35,26.10
2018,06,19,13,36,26.10
2018,06,19,13,37,26.20
2018,06,19,13,38,26.20
2018,06,19,13,39,26.20
2018,06,19,13,40,26.20
2018,06,19,13,41,26.20
2018,06,19,13,42,26.20
2018,06,19,13,43,26.20
2018,06,19,13,44,26.20
2018,06,19,13,45,26.20
2018,06,19,13,46,26.10
2018,06,19,13,47,26.00
2018,06,19,13,48,26.00
2018,06,19,13,49,26.00
2018,06,19,13,50,25.90
2018,06,19,13,51,26.00
2018,06,19,13,52,26.10
2018,06,19,13,53,26.20
2018,06,19,13,54,26.30
2018,06,19,13,55,26.30
2018,06,19,13,56,26.30
2018,06,19,13,57,26.30
2018,06,19,13,58,26.30
2018,06,19,13,59,26.30
2018,06,19,14,00,26.30
2018,06,19,14,01,26.30
2018,06,19,14,02,26.30
2018,06,19,14,03,26.30
2018,06,19,14,04,26.30
2018,06,19,14,05,26.30
2018,06,19,14,06,26.30
2018,06,19,14,07,26.20
2018,06,19,14,08,26.30
2018,06,19,14,09,26.30
2018,06,19,14,10,26.30
2018,06,19,14,11,26.40
2018,06,19,14,12,26.40
2018,06,19,14,13,26.50
2018,06,19,14,14,26.50
2018,06,19,14,15,26.50
2018,06,19,14,16,26.60
2018,06,19,14,17,26.60
2018,06,19,14,18,26.50
2018,06,19,14,19,26.50
2018,06,19,14,20,26.40
2018,06,19,14,21,26.40
2018,06,19,14,22,26.40
2018,06,19,14,23,26.40
2018,06,19,14,24,26.40
2018,06,19,14,25,26.30
2018,06,19,14,26,26.20
2018,06,19,14,27,26.20
2018,06,19,14,28,26.20
2018,06,19,14,29,26.20
2018,06,19,14,30,26.30
2018,06,19,14,31,26.30
2018,06,19,14,32,26.30
2018,06,19,14,33,26.30
2018,06,19,14,34,26.30
2018,06,19,14,35,26.30
2018,06,19,14,36,26.30
2018,06,19,14,37,26.30
2018,06,19,14,38,26.40
2018,06,19,14,39,26.40
2018,06,19,14,40,26.30
2018,06,19,14,41,26.30
2018,06,19,14,42,26.30
2018,06,19,14,43,26.30
2018,06,19,14,44,26.30
2018,06,19,14,45,26.30
2018,06,19,14,46,26.30
2018,06,19,14,47,26.20
2018,06,19,14,48,26.20
2018,06,19,14,49,26.20
2018,06,19,14,50,26.20
2018,06,19,14,51,26.20
2018,06,19,14,52,26.20
2018,06,19,14,53,26.20
2018,06,19,14,54,26.30
2018,06,19,14,55,26.40
2018,06,19,14,56,26.40
2018,06,19,14,57,26.40
2018,06,19,14,58,26.40
2018,06,19,14,59,26.30
2018,06,19,15,00,26.30
2018,06,19,15,01,26.30
2018,06,19,15,02,26.30
2018,06,19,15,03,26.30
2018,06,19,15,04,26.30
2018,06,19,15,05,26.30
2018,06,19,15,06,26.30
2018,06,19,15,07,26.40
2018,06,19,15,08,26.30
2018,06,19,15,09,26.30
2018,06,19,15,10,26.30
2018,06,19,15,11,26.30
2018,06,19,15,12,26.40
2018,06,19,15,13,26.30
2018,06,19,15,14,26.30
2018,06,19,15,15,26.30
2018,06,19,15,16,26.30
2018,06,19,15,17,26.30
2018,06,19,15,18,26.30
2018,06,19,15,19,26.30
2018,06,19,15,20,26.30
2018,06,19,15,21,26.30
2018,06,19,15,22,26.30
2018,06,19,15,23,26.30
2018,06,19,15,24,26.30
2018,06,19,15,25,26.30
2018,06,19,15,26,26.30
2018,06,19,15,27,26.30
2018,06,19,15,28,26.40
2018,06,19,15,29,26.50
2018,06,19,15,30,26.50
2018,06,19,15,31,26.60
2018,06,19,15,32,26.60
2018,06,19,15,33,26.60
2018,06,19,15,34,26.60
2018,06,19,15,35,26.60
2018,06,19,15,36,26.60
2018,06,19,15,37,26.70
2018,06,19,15,38,26.70
2018,06,19,15,39,26.60
2018,06,19,15,40,26.60
2018,06,19,15,41,26.60
2018,06,19,15,42,26.60
2018,06,19,15,43,26.60
2018,06,19,15,44,26.60
2018,06,19,15,45,26.70
2018,06,19,15,46,26.80
2018,06,19,15,47,26.80
2018,06,19,15,48,26.90
2018,06,19,15,49,26.90
2018,06,19,15,50,27.00
2018,06,19,15,51,27.00
2018,06,19,15,52,27.00
2018,06,19,15,53,27.00
2018,06,19,15,54,26.90
2018,06,19,15,55,26.90
2018,06,19,15,56,26.90
2018,06,19,15,57,26.90
2018,06,19,15,58,26.90
2018,06,19,15,59,26.80
2018,06,19,16,00,26.80
2018,06,19,16,01,26.80
2018,06,19,16,02,26.80
2018,06,19,16,03,26.90
2018,06,19,16,04,26.90
2018,06,19,16,05,26.90
2018,06,19,16,06,26.90
2018,06,19,16,07,26.90
2018,06,19,16,08,27.00
2018,06,19,16,09,27.00
2018,06,19,16,10,27.00
2018,06,19,16,11,27.00
2018,06,19,16,12,27.10
2018,06,19,16,13,27.10
2018,06,19,16,14,27.10
2018,06,19,16,15,27.10
2018,06,19,16,16,27.10
2018,06,19,16,17,27.00
2018,06,19,16,18,26.90
2018,06,19,16,19,26.90
2018,06,19,16,20,26.90
2018,06,19,16,21,26.90
2018,06,19,16,22,27.00
2018,06,19,16,23,27.10
2018,06,19,16,24,27.20
2018,06,19,16,25,27.20
2018,06,19,16,26,27.30
2018,06,19,16,27,27.30
2018,06,19,16,28,27.30
2018,06,19,16,29,27.40
2018,06,19,16,30,27.40
2018,06,19,16,31,27.30
2018,06,19,16,32,27.30
2018,06,19,16,33,27.40
2018,06,19,16,34,27.40
2018,06,19,16,35,27.40
2018,06,19,16,36,27.50
2018,06,19,16,37,27.50
2018,06,19,16,38,27.60
2018,06,19,16,39,27.60
2018,06,19,16,40,27.60
2018,06,19,16,41,27.60
2018,06,19,16,42,27.60
2018,06,19,16,43,27.50
2018,06,19,16,44,27.40
2018,06,19,16,45,27.50
2018,06,19,16,46,27.50
2018,06,19,16,47,27.60
2018,06,19,16,48,27.70
2018,06,19,16,49,27.70
2018,06,19,16,50,27.80
2018,06,19,16,51,27.80
2018,06,19,16,52,27.80
2018,06,19,16,53,27.80
2018,06,19,16,54,27.80
2018,06,19,16,55,27.80
2018,06,19,16,56,27.70
2018,06,19,16,57,27.60
2018,06,19,16,58,27.50
2018,06,19,16,59,27.50
2018,06,19,17,00,27.40
2018,06,19,17,01,27.40
2018,06,19,17,02,27.40
2018,06,19,17,03,27.40
2018,06,19,17,04,27.50
2018,06,19,17,05,27.60
2018,06,19,17,06,27.70
2018,06,19,17,07,27.70
2018,06,19,17,08,27.70
2018,06,19,17,09,27.60
2018,06,19,17,10,27.60
2018,06,19,17,11,27.70
2018,06,19,17,12,27.70
2018,06,19,17,13,27.80
2018,06,19,17,14,27.80
2018,06,19,17,15,27.80
2018,06,19,17,16,27.80
2018,06,19,17,17,27.80
2018,06,19,17,18,27.80
2018,06,19,17,19,27.80
2018,06,19,17,20,27.80
2018,06,19,17,21,27.90
2018,06,19,17,22,27.90